Weather History for Fergus Falls, MN

Change the Weather History Date:

Saturday, October 20, 2012

  Actual Average Record
Temperature  
Mean Temperature 45 °F -  
Max Temperature 51 °F 55 °F 83 °F (1953)
Min Temperature 39 °F 34 °F 23 °F (1952)
Degree Days  
Heating Degree Days 20    
Moisture  
Dew Point 41 °F    
Average Humidity 90    
Maximum Humidity 100    
Minimum Humidity 71    
Precipitation  
Precipitation 0.00 in - - ()
Sea Level Pressure  
Sea Level Pressure 29.70 in    
Wind  
Wind Speed 6 mph (South)    
Max Wind Speed 17 mph    
Max Gust Speed 24 mph    
Visibility 8 miles    
Events Fog    
Averages and records for this station are not official NWS values.
T = Trace of Precipitation, MM = Missing Value Source: NWS Daily Summary

Daily Weather History Graph

Daily Weather History Graph

Search for Another Location

Airport:

Trip Planner

Search our weather history database for the weather conditions in past years. The results will help you decide how hot, cold, wet, or windy it might be!

Date:

Astronomy

Oct. 20, 2012 Rise Set
Actual Time 7:49 AM CDT 6:28 PM CDT
Civil Twilight 7:18 AM CDT 6:58 PM CDT
Nautical Twilight 6:43 AM CDT 7:33 PM CDT
Astronomical Twilight 6:09 AM CDT 8:08 PM CDT
Moon 1:36 PM CDT (10/20) 11:06 PM CDT (10/20)
Length of Visible Light 11h 40m
Length of Day
10h 38m
Waxing Crescent, 34% of the Moon is Illuminated
Oct 20
Waxing Crescent
Oct 21
First Quarter
Oct 29
Full
Nov 6
Last Quarter
Nov 13
New

Hourly Weather History & Observations

Time (CDT) Temp. Windchill Dew Point Humidity Pressure Visibility Wind Dir Wind Speed Gust Speed Precip Events Conditions
12:13 AM 41.0 °F - 39.2 °F 93% 29.72 in 10.0 mi Calm Calm - N/A   Overcast
12:34 AM 41.0 °F 39.0 °F 39.2 °F 93% 29.72 in 10.0 mi WNW 3.5 mph - N/A   Overcast
12:53 AM 41.0 °F - 39.2 °F 93% 29.72 in 10.0 mi Calm Calm - N/A   Overcast
1:13 AM 41.0 °F 38.0 °F 39.2 °F 93% 29.72 in 10.0 mi WNW 4.6 mph - N/A   Overcast
1:33 AM 41.0 °F 39.0 °F 39.2 °F 93% 29.72 in 10.0 mi West 3.5 mph - N/A   Overcast
1:53 AM 41.0 °F 38.0 °F 39.2 °F 93% 29.73 in 7.0 mi West 4.6 mph - N/A   Overcast
2:13 AM 41.0 °F - 39.2 °F 93% 29.72 in 7.0 mi Calm Calm - N/A   Overcast
2:33 AM 41.0 °F 39.0 °F 39.2 °F 93% 29.72 in 7.0 mi West 3.5 mph - N/A   Overcast
2:53 AM 41.0 °F 39.0 °F 39.2 °F 93% 29.73 in 7.0 mi West 3.5 mph - N/A   Overcast
3:13 AM 41.0 °F - 39.2 °F 93% 29.73 in 7.0 mi Calm Calm - N/A   Overcast
3:33 AM 41.0 °F - 39.2 °F 93% 29.72 in 7.0 mi Calm Calm - N/A   Overcast
3:53 AM 41.0 °F - 39.2 °F 93% 29.72 in 7.0 mi Calm Calm - N/A   Overcast
4:13 AM 41.0 °F - 39.2 °F 93% 29.72 in 7.0 mi Calm Calm - N/A   Overcast
4:33 AM 41.0 °F - 39.2 °F 93% 29.72 in 7.0 mi Calm Calm - N/A   Overcast
4:53 AM 41.0 °F - 39.2 °F 93% 29.72 in 7.0 mi Calm Calm - N/A   Overcast
5:13 AM 39.2 °F - 39.2 °F 100% 29.72 in 7.0 mi Calm Calm - N/A   Overcast
5:33 AM 39.2 °F - 39.2 °F 100% 29.72 in 7.0 mi Calm Calm - N/A   Overcast
5:53 AM 39.2 °F - 39.2 °F 100% 29.71 in 7.0 mi Calm Calm - N/A   Mostly Cloudy
6:13 AM 39.2 °F - 39.2 °F 100% 29.71 in 5.0 mi Calm Calm - N/A   Mostly Cloudy
6:33 AM 39.2 °F - 39.2 °F 100% 29.72 in 5.0 mi Calm Calm - N/A   Overcast
6:53 AM 39.2 °F - 39.2 °F 100% 29.72 in 5.0 mi Calm Calm - N/A   Overcast
7:13 AM 39.2 °F 35.9 °F 39.2 °F 100% 29.72 in 10.0 mi SSW 4.6 mph - N/A   Overcast
7:33 AM 39.2 °F 35.0 °F 39.2 °F 100% 29.73 in 10.0 mi SSW 5.8 mph - N/A   Overcast
7:53 AM 39.2 °F 37.0 °F 39.2 °F 100% 29.73 in 10.0 mi South 3.5 mph - N/A   Overcast
8:14 AM 39.2 °F 37.0 °F 37.4 °F 93% 29.74 in 0.5 mi South 3.5 mph - N/A Fog Fog
8:33 AM 39.2 °F 35.9 °F 39.2 °F 100% 29.74 in 4.0 mi South 4.6 mph - N/A   Overcast
8:53 AM 39.2 °F 34.2 °F 39.2 °F 100% 29.74 in 0.8 mi South 6.9 mph - N/A   Overcast
9:14 AM 39.2 °F 33.6 °F 39.2 °F 100% 29.74 in 0.5 mi SSE 8.1 mph - N/A Fog Fog
9:33 AM 39.2 °F 32.5 °F 39.2 °F 100% 29.74 in 0.8 mi South 10.4 mph - N/A   Overcast
9:53 AM 39.2 °F 33.6 °F 39.2 °F 100% 29.74 in 0.8 mi South 8.1 mph - N/A   Overcast
10:14 AM 39.2 °F 32.5 °F 39.2 °F 100% 29.73 in 0.5 mi South 10.4 mph - N/A Fog Fog
10:33 AM 39.2 °F 32.0 °F 39.2 °F 100% 29.73 in 1.8 mi South 11.5 mph - N/A   Overcast
10:53 AM 41.0 °F 34.7 °F 41.0 °F 100% 29.73 in 5.0 mi South 10.4 mph - N/A   Overcast
11:14 AM 42.8 °F 36.2 °F 41.0 °F 93% 29.73 in 7.0 mi South 12.7 mph - N/A   Overcast
11:33 AM 41.0 °F 34.3 °F 41.0 °F 100% 29.74 in 1.8 mi South 11.5 mph - N/A   Overcast
11:53 AM 42.8 °F 35.8 °F 41.0 °F 93% 29.73 in 10.0 mi South 13.8 mph - N/A   Overcast
12:13 PM 42.8 °F 35.8 °F 41.0 °F 93% 29.71 in 10.0 mi SSE 13.8 mph - N/A   Overcast
12:33 PM 44.6 °F 38.1 °F 41.0 °F 87% 29.72 in 10.0 mi South 13.8 mph 17.3 mph N/A   Overcast
12:53 PM 44.6 °F 38.1 °F 41.0 °F 87% 29.71 in 10.0 mi South 13.8 mph 18.4 mph N/A   Overcast
1:13 PM 44.6 °F 38.1 °F 42.8 °F 93% 29.71 in 10.0 mi South 13.8 mph - N/A   Overcast
1:33 PM 46.4 °F 40.7 °F 42.8 °F 87% 29.70 in 10.0 mi SSE 12.7 mph - N/A   Overcast
2:13 PM 46.4 °F 41.1 °F 42.8 °F 87% 29.68 in 10.0 mi South 11.5 mph - N/A   Overcast
2:33 PM 48.2 °F - 42.8 °F 82% 29.68 in 10.0 mi SSE 12.7 mph 18.4 mph N/A   Mostly Cloudy
2:53 PM 48.2 °F - 42.8 °F 82% 29.68 in 10.0 mi SSE 13.8 mph - N/A   Mostly Cloudy
3:13 PM 50.0 °F - 42.8 °F 76% 29.67 in 10.0 mi South 13.8 mph 17.3 mph N/A   Mostly Cloudy
3:33 PM 51.8 °F - 42.8 °F 71% 29.67 in 10.0 mi SSE 17.3 mph - N/A   Scattered Clouds
4:13 PM 51.8 °F - 42.8 °F 71% 29.66 in 10.0 mi SSE 12.7 mph - N/A   Clear
4:33 PM 51.8 °F - 42.8 °F 71% 29.66 in 10.0 mi SSE 15.0 mph - N/A   Clear
4:53 PM 51.8 °F - 42.8 °F 71% 29.66 in 10.0 mi SSE 15.0 mph 19.6 mph N/A   Clear
5:13 PM 51.8 °F - 42.8 °F 71% 29.66 in 10.0 mi SSE 16.1 mph - N/A   Clear
5:33 PM 50.0 °F - 42.8 °F 76% 29.66 in 10.0 mi SSE 16.1 mph - N/A   Clear
5:53 PM 48.2 °F - 42.8 °F 82% 29.66 in 10.0 mi SSE 13.8 mph 21.9 mph N/A   Clear
6:13 PM 48.2 °F - 42.8 °F 82% 29.65 in 10.0 mi SE 13.8 mph - N/A   Clear
6:33 PM 46.4 °F 41.5 °F 42.8 °F 87% 29.66 in 10.0 mi SE 10.4 mph - N/A   Clear
6:53 PM 46.4 °F 41.1 °F 42.8 °F 87% 29.67 in 10.0 mi SE 11.5 mph - N/A   Clear
7:13 PM 46.4 °F 40.7 °F 42.8 °F 87% 29.66 in 10.0 mi SE 12.7 mph 19.6 mph N/A   Scattered Clouds
7:33 PM 46.4 °F 40.4 °F 42.8 °F 87% 29.66 in 10.0 mi SE 13.8 mph - N/A   Scattered Clouds
8:13 PM 46.4 °F 41.1 °F 42.8 °F 87% 29.68 in 10.0 mi SE 11.5 mph - N/A   Clear
8:33 PM 46.4 °F 40.1 °F 42.8 °F 87% 29.67 in 10.0 mi SSE 15.0 mph - N/A   Clear
8:53 PM 46.4 °F 40.1 °F 42.8 °F 87% 29.68 in 10.0 mi SE 15.0 mph 18.4 mph N/A   Clear
9:13 PM 46.4 °F 39.8 °F 42.8 °F 87% 29.68 in 10.0 mi SSE 16.1 mph 21.9 mph N/A   Clear
9:34 PM 46.4 °F 40.1 °F 42.8 °F 87% 29.67 in 10.0 mi SSE 15.0 mph - N/A   Clear
9:53 PM 48.2 °F - 42.8 °F 82% 29.68 in 10.0 mi SSE 15.0 mph 24.2 mph N/A   Clear
10:13 PM 48.2 °F - 42.8 °F 82% 29.67 in 10.0 mi SSE 15.0 mph 20.7 mph N/A   Clear
10:34 PM 46.4 °F 40.1 °F 42.8 °F 87% 29.68 in 10.0 mi SSE 15.0 mph 19.6 mph N/A   Clear
10:53 PM 46.4 °F 41.1 °F 42.8 °F 87% 29.69 in 10.0 mi SSE 11.5 mph - N/A   Scattered Clouds
11:34 PM 46.4 °F 41.5 °F 42.8 °F 87% 29.71 in 10.0 mi SE 10.4 mph - N/A   Mostly Cloudy
11:53 PM 48.2 °F - 42.8 °F 82% 29.71 in 10.0 mi SE 10.4 mph 16.1 mph N/A   Overcast